NC4M Weather Reports


time (UTC)temp
C
wind
direction
speed
KPH
gust
KPH
rain 1hr
cm
rain 24hr
cm
rain mn
cm
humidity
%
barometer
mb
20260505054539 17 6 0.0 0.0 0.00 0.00 0.00 69 1005.7
20260505054037 17 6 0.0 0.0 0.00 0.00 0.00 70 1005.6
20260505053534 17 6 0.0 0.0 0.00 0.00 0.00 69 1005.7
20260505053031 17 6 0.0 0.0 0.00 0.00 0.00 69 1005.7
20260505052527 17 7 0.0 1.6 0.00 0.00 0.00 69 1005.7
20260505052025 17 10 0.0 0.0 0.00 0.00 0.00 69 1005.8
20260505051522 17 10 0.0 0.0 0.00 0.00 0.00 69 1005.8
20260505051020 17 10 0.0 1.6 0.00 0.00 0.00 69 1005.8
20260505050518 17 10 0.0 0.0 0.00 0.00 0.00 69 1005.7
20260505041445 18 337 0.0 0.0 0.00 0.00 0.00 65 1006.7
20260505040943 18 337 0.0 0.0 0.00 0.00 0.00 64 1006.7
20260505040440 18 337 0.0 0.0 0.00 0.00 0.00 64 1006.8
20260505035937 18 328 0.0 1.6 0.00 0.00 0.00 64 1006.7
20260505035433 18 41 0.0 0.0 0.00 0.00 0.00 63 1006.6
20260505034930 18 328 0.0 0.0 0.00 0.00 0.00 63 1006.6
20260505034426 18 329 0.0 0.0 0.00 0.00 0.00 63 1006.7
20260505033924 19 328 0.0 1.6 0.00 0.00 0.00 64 1006.4
20260505033420 18 245 0.0 1.6 0.00 0.00 0.00 63 1006.4
20260505032919 18 243 0.0 1.6 0.00 0.00 0.00 64 1006.4
20260505032415 18 336 0.0 1.6 0.00 0.00 0.00 64 1006.4
20260505031912 18 337 0.0 0.0 0.00 0.00 0.00 64 1006.5
20260505031409 18 337 0.0 0.0 0.00 0.00 0.00 64 1006.3
20260505030906 18 337 0.0 0.0 0.00 0.00 0.00 64 1006.3
20260505030401 18 337 0.0 1.6 0.00 0.00 0.00 64 1006.2
20260505025857 18 337 0.0 1.6 0.00 0.00 0.00 66 1006.1
20260505025355 18 340 0.0 0.0 0.00 0.00 0.00 64 1005.9
20260505024854 18 339 0.0 0.0 0.00 0.00 0.00 63 1005.8
20260505024351 18 340 0.0 0.0 0.00 0.00 0.00 63 1006.1
20260505023848 19 340 0.0 0.0 0.00 0.00 0.00 63 1005.8
20260505023345 19 340 0.0 0.0 0.00 0.00 0.00 61 1005.8
20260505022842 19 326 0.0 0.0 0.00 0.00 0.00 62 1005.6
20260505022339 19 326 0.0 0.0 0.00 0.00 0.00 63 1005.4
20260505021836 20 326 0.0 0.0 0.00 0.00 0.00 62 1005.3
20260505021332 20 326 0.0 1.6 0.00 0.00 0.00 61 1005.0
20260505020828 20 286 0.0 0.0 0.00 0.00 0.00 60 1005.1
20260505020324 20 286 0.0 0.0 0.00 0.00 0.00 59 1005.1
20260505015821 20 286 0.0 0.0 0.00 0.00 0.00 59 1005.0
20260505015318 20 286 0.0 1.6 0.00 0.00 0.00 60 1004.8
20260505014815 20 286 0.0 0.0 0.00 0.00 0.00 59 1004.8
20260505014312 20 286 0.0 0.0 0.00 0.00 0.00 58 1004.8
20260505013809 20 285 0.0 0.0 0.00 0.00 0.00 57 1004.8
20260505013306 21 286 0.0 0.0 0.00 0.00 0.00 58 1004.6
20260505012805 21 286 0.0 0.0 0.00 0.00 0.00 57 1004.6
20260505012304 21 285 0.0 0.0 0.00 0.00 0.00 56 1004.7
20260505011757 21 285 0.0 0.0 0.00 0.00 0.00 55 1004.5
20260505011255 21 286 0.0 0.0 0.00 0.00 0.00 55 1004.7
20260505010750 21 286 0.0 0.0 0.00 0.00 0.00 53 1004.7
20260505010247 22 286 0.0 0.0 0.00 0.00 0.00 52 1004.6
20260505005743 22 286 0.0 0.0 0.00 0.00 0.00 50 1004.7
20260505005240 22 285 0.0 0.0 0.00 0.00 0.00 49 1004.6
20260505004737 22 285 0.0 0.0 0.00 0.00 0.00 48 1004.6
20260505004233 22 285 0.0 0.0 0.00 0.00 0.00 48 1004.3
20260505003730 22 357 0.0 0.0 0.00 0.00 0.00 48 1004.5
20260505003229 22 321 1.6 3.2 0.00 0.00 0.00 50 1004.3
20260505002724 22 355 0.0 1.6 0.00 0.00 0.00 49 1004.2
20260505002222 23 355 0.0 0.0 0.00 0.00 0.00 49 1004.6
20260505001719 23 18 0.0 1.6 0.00 0.00 0.00 48 1004.1
20260505001217 23 19 0.0 0.0 0.00 0.00 0.00 47 1004.2
20260505000714 23 19 0.0 0.0 0.00 0.00 0.00 46 1004.3
20260505000211 23 19 0.0 0.0 0.00 0.00 0.00 46 1004.2
20260504235708 24 92 0.0 0.0 0.00 0.00 0.00 44 1004.2
20260504235204 24 120 0.0 1.6 0.00 0.00 0.00 45 1004.0
20260504234701 24 293 3.2 3.2 0.00 0.00 0.00 45 1004.2
20260504234158 24 290 0.0 3.2 0.00 0.00 0.00 44 1004.2
20260504233654 25 329 0.0 1.6 0.00 0.00 0.00 44 1004.1
20260504233150 25 337 0.0 3.2 0.00 0.00 0.00 45 1004.0
20260504232648 25 247 0.0 1.6 0.00 0.00 0.00 46 1004.1
20260504232145 25 247 0.0 3.2 0.00 0.00 0.00 43 1004.3
20260504231642 25 295 0.0 1.6 0.00 0.00 0.00 44 1004.5
20260504231138 25 307 1.6 3.2 0.00 0.00 0.00 43 1004.3
20260504230634 25 243 1.6 3.2 0.00 0.00 0.00 40 1004.5
20260504230133 26 100 0.0 1.6 0.00 0.00 0.00 44 1004.3
20260504225631 26 100 0.0 1.6 0.00 0.00 0.00 43 1004.5
20260504225127 26 166 0.0 6.4 0.00 0.00 0.00 41 1004.2
20260504224624 26 318 1.6 3.2 0.00 0.00 0.00 42 1004.3
20260504224120 26 303 1.6 3.2 0.00 0.00 0.00 42 1004.3
20260504223618 26 10 1.6 1.6 0.00 0.00 0.00 39 1004.0
20260504223113 27 161 1.6 4.8 0.00 0.00 0.00 40 1004.1
20260504222611 27 256 0.0 1.6 0.00 0.00 0.00 40 1004.3
20260504222108 27 258 0.0 3.2 0.00 0.00 0.00 37 1004.1
20260504221605 28 271 3.2 4.8 0.00 0.00 0.00 36 1004.1
20260504221101 28 262 1.6 3.2 0.00 0.00 0.00 36 1004.5
20260504220558 27 270 1.6 1.6 0.00 0.00 0.00 38 1004.2
20260504220055 28 299 0.0 1.6 0.00 0.00 0.00 39 1004.2
20260504215552 28 354 0.0 4.8 0.00 0.00 0.00 39 1004.3
20260504215049 28 282 3.2 3.2 0.00 0.00 0.00 36 1004.2
20260504214544 28 278 0.0 3.2 0.00 0.00 0.00 37 1004.6
20260504214041 29 265 1.6 3.2 0.00 0.00 0.00 38 1004.6
20260504213538 29 287 1.6 1.6 0.00 0.00 0.00 39 1004.1
20260504213035 30 342 0.0 1.6 0.00 0.00 0.00 39 1004.5
20260504212531 29 256 0.0 3.2 0.00 0.00 0.00 44 1004.6
20260504212028 28 321 0.0 1.6 0.00 0.00 0.00 44 1004.7
20260504211525 28 247 0.0 1.6 0.00 0.00 0.00 41 1004.5
20260504211022 28 254 0.0 3.2 0.00 0.00 0.00 43 1004.5
20260504210519 28 247 3.2 4.8 0.00 0.00 0.00 39 1004.3
20260504210016 27 284 0.0 4.8 0.00 0.00 0.00 42 1004.3
20260504205514 27 171 1.6 3.2 0.00 0.00 0.00 40 1004.2
20260504205012 28 269 3.2 6.4 0.00 0.00 0.00 39 1004.5
20260504204510 28 135 1.6 3.2 0.00 0.00 0.00 39 1004.7
20260504204008 28 262 0.0 1.6 0.00 0.00 0.00 43 1004.6
20260504203506 28 243 1.6 3.2 0.00 0.00 0.00 41 1004.6
20260504203002 27 358 0.0 1.6 0.00 0.00 0.00 43 1004.7
20260504202458 27 271 1.6 1.6 0.00 0.00 0.00 43 1005.0
20260504201955 27 282 0.0 1.6 0.00 0.00 0.00 41 1005.1
20260504201452 27 295 0.0 3.2 0.00 0.00 0.00 45 1004.7
20260504200950 26 328 0.0 1.6 0.00 0.00 0.00 46 1004.6
20260504200446 25 239 0.0 3.2 0.00 0.00 0.00 53 1004.5
20260504195943 25 9 0.0 1.6 0.00 0.00 0.00 49 1004.7
20260504195439 25 237 0.0 1.6 0.00 0.00 0.00 48 1005.3
20260504194936 23 313 0.0 1.6 0.00 0.00 0.00 52 1005.0
20260504194432 23 13 0.0 1.6 0.00 0.00 0.00 52 1005.6
20260504193928 23 198 0.0 1.6 0.00 0.00 0.00 49 1005.9
20260504193425 24 239 0.0 1.6 0.00 0.00 0.00 47 1006.2
20260504192924 24 168 0.0 1.6 0.00 0.00 0.00 46 1006.1
20260504192421 25 280 0.0 4.8 0.00 0.00 0.00 45 1006.0
20260504191920 25 299 0.0 1.6 0.00 0.00 0.00 47 1006.0
20260504191417 26 257 3.2 4.8 0.00 0.00 0.00 43 1006.3
20260504190912 26 296 1.6 4.8 0.00 0.00 0.00 43 1006.1
20260504190408 26 311 1.6 3.2 0.00 0.00 0.00 44 1006.1
20260504185905 27 286 0.0 1.6 0.00 0.00 0.00 47 1006.2
20260504185402 27 296 0.0 1.6 0.00 0.00 0.00 44 1006.1
20260504184858 26 300 0.0 3.2 0.00 0.00 0.00 50 1006.2
20260504184354 26 252 1.6 3.2 0.00 0.00 0.00 46 1006.4
20260504183850 25 301 1.6 4.8 0.00 0.00 0.00 45 1006.4
20260504183348 25 294 0.0 1.6 0.00 0.00 0.00 49 1006.0
20260504182845 25 269 3.2 3.2 0.00 0.00 0.00 44 1006.4
20260504182343 25 312 0.0 1.6 0.00 0.00 0.00 47 1006.3
20260504181839 26 327 1.6 4.8 0.00 0.00 0.00 43 1006.3
20260504181337 26 118 1.6 3.2 0.00 0.00 0.00 45 1006.4
20260504180836 27 281 1.6 3.2 0.00 0.00 0.00 42 1006.4
20260504180333 27 306 0.0 4.8 0.00 0.00 0.00 42 1006.4
20260504175831 27 78 0.0 1.6 0.00 0.00 0.00 46 1006.2
20260504175328 28 272 1.6 6.4 0.00 0.00 0.00 39 1006.3
20260504174826 28 267 0.0 1.6 0.00 0.00 0.00 41 1006.3
20260504174323 28 288 3.2 4.8 0.00 0.00 0.00 41 1006.5
20260504173820 28 67 0.0 3.2 0.00 0.00 0.00 39 1006.5
20260504173317 28 96 1.6 4.8 0.00 0.00 0.00 38 1006.4
20260504172814 28 66 0.0 3.2 0.00 0.00 0.00 41 1006.3
20260504172310 28 324 1.6 1.6 0.00 0.00 0.00 40 1006.5
20260504171806 28 27 0.0 1.6 0.00 0.00 0.00 43 1006.4
20260504171304 27 264 3.2 4.8 0.00 0.00 0.00 39 1006.5
20260504170801 27 163 1.6 3.2 0.00 0.00 0.00 40 1006.7
20260504170258 27 207 1.6 3.2 0.00 0.00 0.00 40 1006.6
20260504160216 25 307 1.6 3.2 0.00 0.00 0.00 45 1006.8
20260504151144 22 258 1.6 3.2 0.00 0.00 0.00 46 1007.1
20260504150641 22 267 1.6 1.6 0.00 0.00 0.00 50 1007.3
20260504150138 22 266 0.0 3.2 0.00 0.00 0.00 48 1007.4
20260504141107 20 339 0.0 1.6 0.00 0.00 0.00 54 1008.2
20260504140604 20 270 0.0 1.6 0.00 0.00 0.00 56 1008.1
20260504130527 17 27 0.0 1.6 0.00 0.00 0.00 64 1008.6
20260504110415 13 128 0.0 0.0 0.00 0.00 0.00 69 1008.7
20260504100332 15 207 0.0 0.0 0.00 0.00 0.00 68 1008.8
20260504081726 15 76 0.0 0.0 0.00 0.00 0.00 66 1009.0
20260504081222 15 76 0.0 0.0 0.00 0.00 0.00 66 1008.9
20260504080718 15 76 0.0 0.0 0.00 0.00 0.00 66 1009.0
20260504080215 15 76 0.0 0.0 0.00 0.00 0.00 67 1008.9
20260504070142 15 76 0.0 0.0 0.00 0.00 0.00 64 1009.4